Retour au catalogue

STARLINK-31146

ActifCommunicationsVLEO
NORAD 58769·PAYLOAD·🇺🇸 United States

Lancé Jan 14, 2024 depuis Vandenberg Space Force Base

Loading…

Prochains Passages (prochaines 24 heures)

TLE

FraisSource: CelesTrak SupGP

Époque: Sep 15, 2026, 03:24 UTC

1 58769C 24011E   26258.14215278 -.00054095  00000+0 -15984-2 0  2587
2 58769  53.1584 210.8809 0001430  84.7493 359.3334 15.34415182    19

Suivez STARLINK-31146 en temps réel avec AllMySat

Download on the App Store